Location: Burgerwiesen
(48.6500°N, 15.6167°E)
Time: 23:50:01
(UTC+00:00)

Cosmos 921 Rocket - Pass Details

Date: 09 April 2020
Orbit: 572 x 632 km, 75.8° (Epoch: 29 May)

Event Time Altitude Azimuth Distance (km) Brightness Sun altitude
Rises 18:59:29 0° 337° (NNW) 2,791 7.3 -13.0°
Reaches altitude 10° 19:01:42 10° 335° (NNW) 1,888 6.4 -13.3°
Maximum altitude 19:05:51 69° 253° (WSW) 620 3.2 -13.9°
Enters shadow 19:09:45 12° 171° (S) 1,782 5.0 -14.4°
